sat.trackr.live / text

‹ back to catalog

LAGEOS 2

NORAD 22195 · 1992-070B

PAYLOAD ACTIVE UNKNOWN

§ Identity

Operator
Country
IT
Launch date
1992-10-22
Launch site
AFETR
Launch vehicle
Mass (kg)
RCS (m²)
0.40

Purposes: science

External: N2YO · Heavens-Above · Gunter

§ Orbital elements

Epoch: 2026-05-24T08:54:32.488704Z

Period
222.46 min
Inclination
52.6605°
Eccentricity
0.0137771
Mean motion
6.47293592 rev/d
Perigee alt
5,616.2 km
Apogee alt
5,951.3 km
Semi-major
12,161.9 km
B*
0.0000e+0
RAAN
281.7119°
Arg perigee
176.8869°
Mean anomaly
204.7538°
Rev number
79,388

§ Raw data

LAGEOS 21 22195U 92070B   26144.37120936 -.00000009  00000+0  00000+0 0  99932 22195  52.6605 281.7119 0137771 176.8869 204.7538  6.47293592793886

JSON: /api/v1/satellites/22195 · /tle

For live sub-satellite position, see the globe view (requires WebGL).

§ Visibility from observer

Set your observer location to see the next 7 days of passes ≥ 10°. The values pass through the URL so the page stays shareable.

No JS? Fill the form by hand. The geolocation button needs JavaScript.